Location: Chakepay
(13.3931°S, 72.1925°W)
Time: 13:37:49
(UTC+00:00)

Cosmos 1689 Rocket - Pass Details

Date: 15 November 2019
Orbit: 374 x 389 km, 97.5° (Epoch: 09 December)

Event Time Altitude Azimuth Distance (km) Brightness Sun altitude
Rises 08:35:09 0° 157° (SSE) 2,251 6.7 -22.4°
Reaches altitude 10° 08:37:14 10° 146° (SE) 1,392 5.7 -22.0°
Maximum altitude 08:39:56 32° 80° (E) 670 3.7 -21.4°
Enters shadow 08:40:48 26° 45° (NE) 774 3.7 -21.2°
